Le nostre stazioni meteo in Italia

Pubblicità
Il mio iltempo24.it
Bolzano, Italia (16020): Temperatura & dewpoint: 11.02.2019 13:00:00 - 17.02.2019 13:00:00 (CET)Bolzano, Italia (16020): velocità del vento: 11.02.2019 13:00:00 - 17.02.2019 13:00:00 (CET)Bolzano, Italia (16020): direzione del vento: 11.02.2019 13:00:00 - 17.02.2019 13:00:00 (CET)Bolzano, Italia (16020): reduced air pressure: 11.02.2019 13:00:00 - 17.02.2019 13:00:00 (CET)Bolzano, Italia (16020): visibility: 11.02.2019 13:00:00 - 17.02.2019 13:00:00 (CET)Bolzano, Italia (16020): precipitazioni: 11.02.2019 13:00:00 - 17.02.2019 13:00:00 (CET)
Data & Tempo tt [°C] td [°C] ff [km/h] ff [kn] dd ppp [hPa] vv [km] rr [mm]
17.02.2019 13:00:00 12,5 -5,0 2 1 - 1028,3 10 0,0
17.02.2019 12:00:00 9,0 -4,0 2 1 - - 10 -
17.02.2019 11:00:00 7,0 -4,0 2 1 - - 10 -
17.02.2019 10:00:00 5,7 -3,2 2 1 - 1032,2 10 -
17.02.2019 09:00:00 -1,0 -3,0 2 1 - - 10 -
17.02.2019 08:00:00 -1,0 -3,0 2 1 - - 10 -
17.02.2019 07:00:00 -0,6 -4,0 2 1 - 1033,1 10 0,0
17.02.2019 06:00:00 - - - - - - - -
17.02.2019 05:00:00 - - - - - - - -
17.02.2019 04:00:00 -1,5 -4,3 4 2 E 1032,9 - -
17.02.2019 03:00:00 - - - - - - - -
17.02.2019 02:00:00 - - - - - - - -
17.02.2019 01:00:00 0,1 -2,6 2 1 S 1033,1 - 0,0
17.02.2019 00:00:00 - - - - - - - -
16.02.2019 23:00:00 2,0 -2,0 4 2 - - 10 -
16.02.2019 22:00:00 1,0 -2,7 0 0 N 1032,9 10 -
16.02.2019 21:00:00 5,0 -1,0 0 0 N - 10 -
16.02.2019 20:00:00 5,0 -2,0 0 0 N - 10 -
16.02.2019 19:00:00 3,3 -2,1 2 1 - 1031,6 10 0,0
16.02.2019 18:00:00 11,0 -3,0 2 1 - - 10 -
16.02.2019 17:00:00 13,0 -4,0 2 1 - - 10 -
16.02.2019 16:00:00 13,6 -4,0 4 2 - 1029,4 10 -
16.02.2019 15:00:00 13,0 -5,0 4 2 - - 10 -
16.02.2019 14:00:00 12,0 -5,0 4 2 - - 10 -
16.02.2019 13:00:00 11,3 -4,4 4 2 - 1032,1 10 0,0
16.02.2019 12:00:00 9,0 -3,0 4 2 - - 10 -
16.02.2019 11:00:00 7,0 -3,0 2 1 - - 10 -
16.02.2019 10:00:00 6,5 -2,8 4 2 - 1034,9 10 -
16.02.2019 09:00:00 -1,0 -3,0 4 2 - - 10 -
16.02.2019 08:00:00 -2,0 -4,0 0 0 N - 10 -
16.02.2019 07:00:00 -0,7 -3,4 0 0 N 1035,5 10 0,0
16.02.2019 06:00:00 - - - - - - - -
16.02.2019 05:00:00 - - - - - - - -
16.02.2019 04:00:00 -2,5 -4,2 2 1 O 1035,5 - -
16.02.2019 03:00:00 - - - - - - - -
16.02.2019 02:00:00 - - - - - - - -
16.02.2019 01:00:00 0,5 -2,8 2 1 O 1035,1 - 0,0
16.02.2019 00:00:00 - - - - - - - -
15.02.2019 23:00:00 3,0 -2,0 0 0 N - 10 -
15.02.2019 22:00:00 0,9 -2,5 0 0 N 1034,7 10 -
15.02.2019 21:00:00 4,0 -2,0 0 0 N - 10 -
15.02.2019 20:00:00 4,0 -2,0 2 1 - - 10 -
15.02.2019 19:00:00 6,4 -2,4 5 3 - 1032,4 10 0,0
15.02.2019 18:00:00 11,0 -3,0 4 2 - - 10 -
15.02.2019 17:00:00 13,0 -3,0 8 4 SSE - 10 -
15.02.2019 16:00:00 14,7 -4,6 4 2 - 1028,9 10 -
15.02.2019 15:00:00 14,0 -5,0 4 2 - - 10 -
15.02.2019 14:00:00 13,0 -4,0 4 2 - - 10 -
15.02.2019 13:00:00 12,3 -3,8 4 2 - 1031,5 10 0,0
15.02.2019 12:00:00 11,0 -5,0 4 2 - - 10 -
15.02.2019 11:00:00 7,0 -3,0 2 1 - - 10 -
15.02.2019 10:00:00 5,9 -2,7 2 1 - 1035,3 10 -
15.02.2019 09:00:00 -1,0 -4,0 2 1 - - 10 -
15.02.2019 08:00:00 -1,0 -3,0 2 1 - - 10 -
15.02.2019 07:00:00 -1,8 -4,0 0 0 N 1036,3 10 0,0
15.02.2019 06:00:00 - - - - - - - -
15.02.2019 05:00:00 - - - - - - - -
15.02.2019 04:00:00 -1,1 -3,5 2 1 ESE 1036,1 - -
15.02.2019 03:00:00 - - - - - - - -
15.02.2019 02:00:00 - - - - - - - -
15.02.2019 01:00:00 -0,3 -2,8 2 1 NNO 1036,7 - 0,0
15.02.2019 00:00:00 - - - - - - - -
14.02.2019 23:00:00 0,0 -3,0 2 1 - - 10 -
14.02.2019 22:00:00 -0,4 -3,1 2 1 - 1035,7 10 -
14.02.2019 21:00:00 2,0 -2,0 0 0 N - 10 -
14.02.2019 20:00:00 3,0 -2,0 4 2 - - 10 -
14.02.2019 19:00:00 3,2 -2,1 4 2 - 1034,6 10 0,0
14.02.2019 18:00:00 7,0 -1,0 0 0 N - 10 -
14.02.2019 17:00:00 11,0 -2,0 4 2 - - 10 -
14.02.2019 16:00:00 13,0 -2,3 4 2 SO 1032,3 40 -
14.02.2019 15:00:00 12,0 -2,0 0 0 N - 10 -
14.02.2019 14:00:00 11,0 -3,0 4 2 - - 10 -
14.02.2019 13:00:00 10,7 -2,9 4 2 - 1035,0 10 0,0
14.02.2019 12:00:00 9,0 -1,0 2 1 - - 10 -
14.02.2019 11:00:00 7,0 -2,0 4 2 E - 10 -
14.02.2019 10:00:00 4,7 -2,2 0 0 N 1038,6 10 -
14.02.2019 09:00:00 -1,0 -3,0 4 2 - - 10 -
14.02.2019 08:00:00 -2,0 -3,0 2 1 - - 10 -
14.02.2019 07:00:00 -2,0 -3,6 0 0 N 1039,7 10 0,0
14.02.2019 06:00:00 - - - - - - - -
14.02.2019 05:00:00 - - - - - - - -
14.02.2019 04:00:00 -2,2 -3,7 2 1 NNO 1040,0 - -
14.02.2019 03:00:00 - - - - - - - -
14.02.2019 02:00:00 - - - - - - - -
14.02.2019 01:00:00 -0,4 -3,4 4 2 NE 1040,0 - 0,0
14.02.2019 00:00:00 - - - - - - - -
13.02.2019 23:00:00 -1,0 -4,0 0 0 N - 10 -
13.02.2019 22:00:00 -0,5 -3,4 0 0 N 1039,1 10 -
13.02.2019 21:00:00 1,0 -3,0 0 0 N - 10 -
13.02.2019 20:00:00 2,0 -4,0 5 3 - - 10 -
13.02.2019 19:00:00 2,6 -3,7 5 3 - 1036,8 10 -
13.02.2019 18:00:00 7,0 -3,0 2 1 - - 10 -
13.02.2019 17:00:00 9,0 -5,0 4 2 - - 10 -
13.02.2019 16:00:00 11,0 -6,4 4 2 - 1034,0 10 -
13.02.2019 15:00:00 11,0 -7,0 5 3 - - 10 -
13.02.2019 14:00:00 10,0 -7,0 4 2 - - 10 -
13.02.2019 13:00:00 9,6 -7,9 4 2 - 1035,8 10 0,0
13.02.2019 12:00:00 7,0 -6,0 0 0 N - 10 -
13.02.2019 11:00:00 5,0 -5,0 5 3 SSO - 10 -
13.02.2019 10:00:00 4,7 -6,8 0 0 N 1038,2 10 -
13.02.2019 09:00:00 -1,0 -6,0 0 0 N - 10 -
13.02.2019 08:00:00 -1,0 -6,0 0 0 N - 10 -
13.02.2019 07:00:00 -2,0 -6,9 0 0 N 1037,1 10 0,0
13.02.2019 06:00:00 - - - - - - - -
13.02.2019 05:00:00 - - - - - - - -
13.02.2019 04:00:00 -1,7 -7,0 2 1 N 1035,7 - -
13.02.2019 03:00:00 - - - - - - - -
13.02.2019 02:00:00 - - - - - - - -
13.02.2019 01:00:00 0,6 -7,1 5 3 SE 1034,3 - 0,0
13.02.2019 00:00:00 - - - - - - - -
12.02.2019 23:00:00 4,0 -8,0 2 1 - - 10 -
12.02.2019 22:00:00 3,0 -7,7 2 1 - 1032,1 10 -
12.02.2019 21:00:00 6,0 -10,0 8 4 N - 10 -
12.02.2019 20:00:00 9,0 -10,0 11 6 N - 10 -
12.02.2019 19:00:00 10,3 -13,0 18 10 NE 1028,0 10 0,0
12.02.2019 18:00:00 10,0 -9,0 15 8 N - 10 -
12.02.2019 17:00:00 12,0 -12,0 16 9 N - 10 -
12.02.2019 16:00:00 12,5 -11,4 15 8 NNE 1025,2 10 -
12.02.2019 15:00:00 13,0 -12,0 24 13 NE - 10 -
12.02.2019 14:00:00 13,0 -13,0 24 13 NE - 10 -
12.02.2019 13:00:00 12,2 -11,9 26 14 N 1025,4 10 0,0
12.02.2019 12:00:00 12,0 -11,0 24 13 NNE - 10 -
12.02.2019 11:00:00 10,0 -10,0 11 6 - - 10 -
12.02.2019 10:00:00 7,2 -8,5 11 6 N 1027,2 10 -
12.02.2019 09:00:00 5,0 -9,0 8 4 N - 10 -
12.02.2019 08:00:00 5,0 -10,0 11 6 N - 10 -
12.02.2019 07:00:00 3,9 -8,5 9 5 E 1026,4 10 0,0
12.02.2019 06:00:00 - - - - - - - -
12.02.2019 05:00:00 - - - - - - - -
12.02.2019 04:00:00 3,1 -7,0 8 4 N 1025,1 - -
12.02.2019 03:00:00 - - - - - - - -
12.02.2019 02:00:00 - - - - - - - -
12.02.2019 01:00:00 8,1 -10,4 11 6 NE 1023,5 - 0,0
12.02.2019 00:00:00 - - - - - - - -
11.02.2019 23:00:00 7,0 -9,0 18 10 NE - 10 -
11.02.2019 22:00:00 8,2 -11,3 18 10 NNE 1021,5 10 -
11.02.2019 21:00:00 7,0 -8,0 15 8 NNE - 10 -
11.02.2019 20:00:00 7,0 -7,0 16 9 NNE - 10 -
11.02.2019 19:00:00 7,1 -7,8 15 8 NNE 1019,2 10 -
11.02.2019 18:00:00 9,0 -9,0 15 8 NNE - 10 -
11.02.2019 17:00:00 10,0 -10,0 22 12 NE - 10 -
11.02.2019 16:00:00 9,9 -9,4 18 10 NE 1014,9 10 -
11.02.2019 15:00:00 11,0 -9,0 11 6 - - 10 -
11.02.2019 14:00:00 11,0 -9,0 15 8 - - 10 -
11.02.2019 13:00:00 10,5 -6,5 16 9 NE 1012,8 10 -

tt = Temperatura
td = dewpoint
ff = velocità del vento
dd = direzione del vento
ppp = reduced air pressure
vv = visibility
rr = precipitazioni

Stazioni seguenti

WeatherPro
AMSI
MeteoEarth